TimeEDT,TemperatureF,Dew PointF,Humidity,Sea Level PressureIn,VisibilityMPH,Wind Direction,Wind SpeedMPH,Gust SpeedMPH,PrecipitationIn,Events,Conditions,WindDirDegrees,DateUTC
12:53 AM,37.9,24.1,57,30.12,10.0,East,6.9,-,N/A,,Overcast,80,2013-03-18 04:53:00
1:53 AM,37.9,25.0,60,30.10,10.0,East,8.1,-,0.00,Rain,Light Rain,90,2013-03-18 05:53:00
2:53 AM,36.0,28.9,76,30.09,7.0,East,12.7,19.6,0.01,,Overcast,100,2013-03-18 06:53:00
3:53 AM,36.0,28.9,76,30.07,6.0,Variable,3.5,16.1,0.03,Rain,Light Rain,0,2013-03-18 07:53:00
4:53 AM,35.1,28.9,78,30.06,6.0,ESE,8.1,16.1,0.08,Rain,Rain,110,2013-03-18 08:53:00
5:53 AM,35.1,30.0,82,30.05,4.0,East,12.7,25.3,0.09,Rain,Light Rain,90,2013-03-18 09:53:00
7:53 AM,36.0,28.0,73,29.99,10.0,ESE,12.7,27.6,0.02,Rain,Light Rain,120,2013-03-18 11:53:00
8:12 AM,35.6,28.4,75,29.95,10.0,ESE,11.5,26.5,0.00,,Scattered Clouds,120,2013-03-18 12:12:00
8:53 AM,37.9,30.0,73,29.97,10.0,SE,9.2,-,0.00,,Mostly Cloudy,140,2013-03-18 12:53:00
9:53 AM,37.0,28.0,70,29.94,10.0,ESE,10.4,26.5,N/A,,Scattered Clouds,120,2013-03-18 13:53:00
10:53 AM,37.9,28.9,70,29.95,10.0,SE,13.8,23.0,0.00,Rain,Light Rain,140,2013-03-18 14:53:00
11:29 AM,37.4,30.2,75,29.90,2.5,ESE,15.0,26.5,0.12,Rain,Heavy Rain,110,2013-03-18 15:29:00
11:53 AM,37.0,30.9,79,29.91,2.5,SE,19.6,28.8,0.25,Rain,Heavy Rain,130,2013-03-18 15:53:00
12:16 PM,37.4,32.0,81,29.88,4.0,SSE,9.2,34.5,0.09,Rain,Rain,160,2013-03-18 16:16:00
12:53 PM,37.9,33.1,83,29.86,2.5,SE,24.2,42.6,0.19,Rain,Rain,140,2013-03-18 16:53:00
1:05 PM,39.2,33.8,81,29.82,4.0,SE,18.4,31.1,0.03,Rain,Light Rain,140,2013-03-18 17:05:00
1:53 PM,41.0,34.0,76,29.90,10.0,SE,12.7,17.3,0.04,Rain,Light Rain,140,2013-03-18 17:53:00
2:07 PM,39.2,33.8,81,29.87,10.0,SSE,12.7,26.5,0.00,,Overcast,150,2013-03-18 18:07:00
2:53 PM,41.0,34.0,76,29.85,10.0,SE,10.4,21.9,0.00,Rain,Light Rain,130,2013-03-18 18:53:00
3:53 PM,44.1,37.0,76,29.81,10.0,SSE,10.4,24.2,0.01,,Overcast,150,2013-03-18 19:53:00
4:30 PM,44.6,37.4,76,29.77,10.0,SSE,10.4,24.2,0.01,,Overcast,160,2013-03-18 20:30:00
4:53 PM,45.0,37.0,74,29.78,10.0,ESE,6.9,-,0.01,,Overcast,120,2013-03-18 20:53:00
5:27 PM,44.6,37.4,76,29.72,10.0,SE,8.1,18.4,N/A,,Scattered Clouds,130,2013-03-18 21:27:00
5:53 PM,48.0,39.0,71,29.78,10.0,SE,4.6,-,N/A,,Scattered Clouds,130,2013-03-18 21:53:00
6:53 PM,45.0,37.0,74,29.75,10.0,SE,13.8,-,N/A,,Scattered Clouds,140,2013-03-18 22:53:00
7:53 PM,45.0,36.0,71,29.75,10.0,SE,8.1,-,N/A,,Mostly Cloudy,130,2013-03-18 23:53:00
8:53 PM,45.0,35.1,68,29.75,10.0,SE,10.4,-,N/A,,Overcast,140,2013-03-19 00:53:00
9:53 PM,46.9,37.0,68,29.73,10.0,SE,9.2,-,N/A,,Overcast,130,2013-03-19 01:53:00
10:08 PM,48.2,37.4,66,29.72,10.0,SSE,9.2,-,N/A,,Overcast,160,2013-03-19 02:08:00
10:53 PM,48.9,39.0,69,29.73,10.0,SSE,8.1,-,N/A,,Overcast,150,2013-03-19 02:53:00
11:53 PM,48.0,41.0,77,29.72,10.0,ESE,4.6,-,N/A,,Overcast,110,2013-03-19 03:53:00